SCP
0 0 0 -0 -0 -0 -0 -0 0 0 0 0 1 1 1 1 0 0 0 0 0 0 0 0 0 0 0 0 0 0 0 0 0 0 0 0 0 1 1 0 -0 0 -0
0 0 0 -0 -0 0 0 0 0 0 0 0 0 0 1 1 1 1 1 0 0 0 0 0 0 0 1 1 1 0 0 0 0 0 0 0 0 0 1 0 0 1 0
-0 -0 -0 -0 -0 0 0 0 0 0 0 0 0 0 1 0 1 1 0 0 0 0 0 0 0 0 1 1 1 1 1 1 0 0 0 -0 0 0 0 0 1 1 1
-0 -0 -0 -0 -0 -0 -0 -0 0 0 0 0 0 1 1 1 0 0 0 0 0 0 0 0 0 0 0 0 1 1 1 0 0 0 0 0 0 1 0 0 0 0 1
-0 -0 -0 -0 -0 0 0 0 0 0 0 0 0 0 0 0 0 0 0 0 0 0 0 0 0 0 0 0 0 0 0 0 0 0 0 0 0 0 0 0 0 0 0
-0 -0 -0 -0 -0 -0 0 0 0 0 0 0 0 0 0 0 0 0 0 0 0 0 0 0 0 0 0 0 0 0 0 0 0 0 0 1 0 1 0 1 0 1 0
-0 -0 -0 -0 -0 0 0 0 0 0 0 0 0 0 0 0 0 0 0 0 0 0 0 0 0 0 0 0 0 0 0 0 0 0 0 1 0 1 0 1 0 0 0
0 -0 -0 -0 -0 -0 0 0 0 0 0 0 0 0 0 0 0 0 0 0 0 0 0 0 0 0 0 0 0 0 0 0 0 0 0 0 1 1 1 1 0 1 1
0 -0 -0 -0 -0 -0 0 0 0 0 0 0 0 0 0 0 0 0 0 0 0 0 0 0 0 0 0 0 0 0 0 0 0 0 0 0 0 0 1 1 0 0 1
0 0 0 -0 0 0 -0 0 0 0 0 0 0 0 0 0 0 0 0 0 0 0 0 0 0 0 0 0 0 0 0 -0 0 0 0 0 0 0 0 0 0 0 0
0 0 -0 0 0 0 0 0 0 0 0 0 0 0 0 0 0 0 0 0 0 0 0 0 0 0 0 0 0 0 -0 0 0 0 0 0 0 0 0 0 0 0 0
-0 -0 -0 0 0 0 0 0 0 0 0 0 0 0 0 0 0 0 0 0 0 0 0 0 0 0 -0 0 0 0 0 0 0 0 0 0 0 0 0 0 0 0 0
-0 0 0 0 0 0 0 0 0 -0 0 0 0 0 0 0 0 0 0 0 0 0 0 0 0 0 0 0 0 0 0 0 0 0 0 0 0 0 0 0 0 0 0
0 -0 -0 0 0 0 -0 -0 -0 -0 -0 -0 0 0 0 0 0 0 0 0 0 0 0 0 0 0 0 0 0 0 0 0 0 0 0 0 0 0 0 0 0 0 0
-0 -0 -0 0 0 0 0 -0 -0 -0 0 0 0 0 0 0 0 0 0 0 0 0 0 0 0 0 0 0 0 0 0 0 0 0 0 0 0 0 0 0 0 0 0
-0 -0 0 0 0 0 0 0 0 0 0 0 0 0 0 0 0 0 0 0 0 0 0 0 0 0 0 0 0 0 0 0 0 0 0 0 0 0 0 0 0 0 0
-0 -0 0 0 0 0 0 0 0 0 0 0 0 0 0 0 0 0 0 0 0 0 0 0 0 0 0 0 0 0 0 0 0 0 0 0 0 0 0 0 0 0 0
-0 0 0 0 0 0 0 0 0 0 0 0 0 0 0 0 0 0 0 0 0 0 0 0 0 0 0 0 0 0 0 0 0 0 0 0 0 0 0 0 0 0 0
0 0 0 0 0 0 0 0 0 0 0 0 0 0 0 0 0 0 0 0 0 0 0 0 0 0 0 0 0 0 0 0 0 0 0 0 0 0 0 0 0 0 0
0 0 0 0 0 0 0 0 0 0 0 0 0 0 0 0 0 0 0 0 0 0 0 0 0 0 0 0 0 0 0 0 0 0 0 0 0 0 0 0 0 0 0
0 0 0 0 0 0 0 0 0 0 0 0 0 0 0 0 0 0 0 0 0 0 0 0 0 0 0 0 0 0 0 0 0 0 0 0 0 0 0 0 0 0 0
0 0 0 0 0 0 0 0 0 0 0 0 0 0 0 0 0 0 0 0 0 0 0 0 0 0 0 0 0 0 0 0 0 0 0 0 0 0 0 0 0 0 0
0 0 0 0 0 0 0 0 0 0 0 0 0 0 0 0 0 0 0 0 0 0 0 0 0 0 0 0 0 0 0 0 0 0 0 0 0 0 0 0 0 0 0
0 0 0 0 0 0 0 0 0 0 0 0 0 0 0 0 0 0 0 0 0 0 0 0 0 0 0 0 0 0 0 0 0 0 0 0 0 0 0 0 0 0 0
0 0 0 0 0 0 0 0 0 0 0 0 0 0 0 0 0 0 0 0 0 0 0 0 0 0 0 0 0 0 0 0 0 0 0 0 0 0 0 0 0 0 0
0 0 0 0 0 0 0 0 -0 -0 0 0 0 0 0 0 0 0 0 0 0 0 0 0 0 0 0 0 0 0 0 0 0 0 0 0 0 0 0 0 0 0 0
Wind_Speed_500mb
16 17 27 21 17 13 10 8 10 7 5 7 6 7 7 8 11 10 11 11 8 8 3 2 6 12 16 14 20 17 17 17 18 15 12 10 8 6 4 1 5 12 12
18 15 21 16 12 10 10 9 8 5 5 7 8 8 10 11 13 11 13 12 11 12 14 17 24 33 29 28 21 22 19 20 17 14 13 10 11 10 10 9 9 12 12
21 21 21 20 16 12 11 10 7 5 4 6 7 9 12 12 14 14 16 15 18 22 27 34 41 41 35 28 26 28 25 21 16 14 15 8 10 15 14 15 14 15 13
27 23 21 23 18 15 14 12 9 8 9 8 8 9 11 12 16 17 17 18 23 30 34 36 38 36 26 23 22 23 26 25 22 19 9 14 12 13 12 14 17 19 16
27 27 26 25 22 19 16 15 12 8 7 7 6 7 10 12 15 20 22 25 29 31 31 30 29 28 22 20 21 22 24 26 24 19 16 15 11 15 13 13 17 21 22
23 25 34 30 23 18 12 9 5 4 5 8 10 9 11 13 14 15 17 19 22 24 25 24 25 23 21 21 22 24 28 33 32 18 22 18 18 21 16 14 20 21 24
27 33 30 25 19 14 10 5 2 4 6 7 9 11 15 16 15 15 14 15 17 17 15 16 17 20 24 25 21 21 26 26 18 24 27 26 19 25 24 21 25 21 24
31 33 27 22 18 12 7 3 3 4 6 8 11 14 15 14 14 14 15 14 18 18 21 23 24 24 26 25 22 19 17 19 12 17 23 18 31 32 34 33 31 24 24
26 23 20 18 14 10 7 5 3 5 7 9 9 10 11 14 15 16 17 18 19 21 23 24 26 28 28 29 27 23 19 16 8 15 16 20 30 32 31 34 36 38 25
20 16 16 14 13 8 8 7 4 1 4 4 4 9 13 16 16 16 18 18 20 26 30 32 33 33 31 30 27 23 19 14 9 10 12 22 28 33 33 34 39 39 43
18 18 13 9 7 5 4 5 7 7 5 4 6 10 14 13 19 20 20 22 25 29 33 36 36 35 35 32 28 24 19 12 11 12 13 21 25 28 30 29 31 31 49
21 16 11 8 3 2 4 6 6 8 5 7 9 13 14 17 19 22 24 25 30 33 36 36 37 38 31 19 19 22 13 18 14 15 18 27 28 30 30 29 30 31 36
19 18 12 6 0 1 3 4 5 7 9 11 15 16 18 21 20 21 20 22 29 36 26 32 33 24 33 31 24 26 25 24 17 17 25 26 24 28 35 34 31 30 27
22 20 14 9 1 2 3 4 5 7 10 12 15 22 20 19 22 23 24 27 29 28 33 28 26 37 38 35 29 26 24 20 15 14 22 24 24 23 25 32 33 30 30
25 22 18 13 7 6 2 2 5 8 10 13 16 18 20 19 21 23 26 28 29 27 28 28 28 29 33 29 27 26 22 22 22 14 14 27 26 24 24 26 31 36 35
23 22 20 18 11 6 4 5 7 12 12 14 14 17 22 22 21 23 26 25 25 26 26 26 27 30 27 28 25 27 25 20 17 19 14 19 23 23 24 27 28 32 37
18 20 22 22 13 7 7 6 7 7 13 10 14 23 22 24 25 29 26 27 27 29 34 30 31 32 32 28 31 30 29 27 19 24 19 14 17 19 20 22 27 30 33
22 22 24 25 15 10 9 4 4 8 15 12 18 23 25 26 27 32 30 32 33 39 36 36 35 34 33 31 30 30 29 27 26 28 21 17 15 13 19 21 23 26 28
23 25 28 24 13 15 10 3 6 10 11 12 20 22 27 30 34 37 42 44 42 42 46 42 42 41 42 39 38 37 35 34 32 28 27 25 23 20 15 23 22 25 29
19 22 25 20 14 20 16 10 11 12 14 22 28 32 36 39 40 43 47 53 51 44 47 47 50 51 51 53 51 49 45 42 39 38 34 32 31 24 18 15 17 16 25
16 22 15 17 23 24 17 12 13 17 18 16 20 36 42 47 56 61 63 57 57 47 51 62 57 56 58 55 54 58 58 52 50 49 46 44 41 35 30 23 20 16 17
14 17 21 22 24 25 17 23 22 19 16 25 27 44 53 62 61 56 54 54 51 50 50 52 55 57 59 56 62 60 66 65 61 52 51 51 48 43 35 29 24 31 32
15 15 14 16 16 13 8 12 15 17 22 23 37 45 56 59 59 58 58 60 63 58 50 50 52 54 64 62 59 64 51 67 62 60 49 46 46 43 39 35 26 26 25
8 9 7 1 5 11 22 28 40 28 31 45 42 38 57 60 64 67 69 68 68 64 53 49 48 52 54 67 63 65 77 80 74 65 49 47 49 47 41 35 31 24 21
11 11 12 14 19 30 35 46 38 35 31 30 37 44 47 47 57 65 70 70 67 63 52 59 54 42 43 53 59 59 61 65 68 66 72 45 46 45 41 34 30 29 27
14 13 19 20 25 35 43 55 51 42 42 44 46 51 49 54 52 50 61 59 55 49 36 32 30 26 21 15 18 20 23 25 29 44 58 69 62 43 40 31 30 30 32
Wind_Direction_500mb
155 166 175 179 174 167 152 127 113 115 140 154 154 166 206 219 236 240 231 230 255 267 268 272 334 318 302 298 293 271 276 271 274 270 279 280 293 284 273 158 79 132 136
146 140 164 172 167 156 147 142 129 130 172 151 160 177 226 241 258 257 258 272 272 267 265 283 295 308 296 280 267 252 247 254 257 257 278 281 268 260 263 247 176 204 159
139 140 140 143 150 155 140 142 154 145 164 151 169 194 224 240 247 259 263 276 287 290 286 291 300 301 296 282 254 247 238 236 240 250 255 238 262 260 255 255 240 222 194
139 141 137 132 127 127 133 151 154 164 181 181 185 208 234 251 257 259 265 274 284 289 292 297 300 302 301 280 259 241 236 234 235 233 246 253 241 263 254 255 247 239 218
136 133 133 128 132 139 145 149 151 175 213 247 271 264 267 275 294 299 299 290 286 289 294 295 290 289 286 287 280 265 246 238 236 238 240 238 251 254 247 259 249 248 241
130 128 126 128 128 122 117 109 129 211 254 272 272 296 309 314 310 303 299 303 307 310 310 299 298 298 294 288 275 268 266 258 248 245 251 245 239 242 242 248 261 246 248
130 123 119 115 112 108 105 105 136 226 263 277 290 307 317 324 326 316 321 326 327 325 320 317 312 311 313 314 310 279 262 266 257 242 244 245 237 245 241 238 251 254 255
135 126 121 117 105 85 64 2 306 270 263 286 303 314 319 316 316 320 330 339 345 345 343 343 334 329 326 323 320 312 296 265 264 243 233 251 256 256 257 250 240 240 259
142 133 124 108 87 68 35 351 319 274 270 271 286 303 311 312 319 323 331 332 340 342 339 333 330 331 330 327 320 315 307 289 255 260 260 252 258 257 255 256 259 256 253
150 155 130 101 82 45 21 38 71 213 226 248 286 314 316 315 321 324 322 327 328 330 331 330 329 327 327 325 323 318 318 324 290 281 269 252 260 255 256 262 268 245 258
165 151 129 115 81 40 30 51 54 45 46 1 330 314 317 317 317 320 313 322 325 325 324 324 323 323 323 321 320 319 323 302 302 278 272 270 267 265 265 260 262 246 232
179 167 154 135 101 354 356 4 4 7 3 354 340 339 335 319 310 307 302 307 313 317 317 318 317 317 321 315 311 315 309 294 311 292 280 280 274 273 272 267 262 264 251
182 187 193 185 180 229 286 338 320 330 330 323 326 323 316 318 319 322 317 321 319 317 322 318 316 316 311 310 299 295 292 298 290 292 280 293 285 273 270 273 269 260 257
193 201 206 216 267 269 276 320 314 319 313 322 317 320 319 319 312 314 313 315 318 315 314 315 312 310 312 313 310 303 296 290 284 284 279 294 290 282 275 270 267 265 261
198 212 213 226 221 239 239 284 352 346 329 328 325 315 317 313 310 313 311 314 312 312 312 311 309 308 310 311 309 305 299 294 291 277 275 295 295 293 289 280 273 268 261
214 220 219 222 224 243 191 64 34 15 357 348 338 331 342 334 321 320 316 314 311 308 304 301 301 305 299 300 298 297 293 283 277 279 268 285 289 288 284 283 281 274 267
221 220 210 207 214 227 165 97 58 19 21 351 353 2 358 351 334 330 317 316 313 310 310 304 300 301 297 290 293 287 288 286 272 284 277 246 280 287 288 275 271 271 271
232 224 205 202 211 211 171 94 11 354 358 345 346 341 338 328 323 321 310 307 309 311 304 299 296 290 287 284 279 273 270 265 267 274 262 256 237 254 297 285 275 273 268
243 223 200 198 202 204 200 280 330 325 339 322 320 318 314 314 312 306 303 300 297 294 294 288 284 282 280 278 276 272 266 265 264 262 252 248 244 244 253 286 298 280 271
227 200 187 186 207 215 224 266 273 289 308 312 311 311 316 320 319 313 307 304 301 291 288 284 279 277 272 273 272 268 263 260 258 253 254 250 249 238 251 247 281 283 292
209 180 178 188 220 222 242 274 281 291 301 313 314 310 319 319 318 312 307 303 300 293 289 292 284 276 274 265 269 265 263 258 253 249 251 246 244 240 244 246 261 258 280
143 162 194 208 227 238 274 295 304 317 326 316 318 317 316 313 312 313 310 307 301 296 291 286 284 281 273 265 259 263 265 263 255 251 249 244 237 234 238 241 238 272 276
152 177 207 236 255 278 337 6 352 337 334 322 322 318 313 312 314 317 315 312 309 303 294 288 283 278 278 271 258 250 265 253 258 253 238 236 234 232 234 235 248 258 269
184 206 221 179 55 10 359 351 344 345 333 326 323 319 318 316 317 317 314 310 306 301 295 291 288 280 277 274 269 261 255 259 267 268 240 233 225 225 228 233 245 253 250
104 108 76 39 10 354 347 343 342 335 333 329 320 316 317 316 315 314 312 310 306 302 299 300 295 287 276 270 269 268 264 263 256 254 255 236 227 224 227 236 240 248 255
80 46 10 1 345 340 344 339 336 337 328 322 319 321 320 319 317 315 311 307 301 301 305 306 303 307 307 291 275 266 266 264 269 256 255 251 248 229 227 232 242 253 253
Wind_Speed_850mb
16 17 27 21 17 13 10 8 10 7 5 7 6 7 7 8 11 10 11 11 8 8 3 2 6 12 16 14 20 17 17 17 18 15 12 10 8 6 4 1 5 12 12
18 15 21 16 12 10 10 9 8 5 5 7 8 8 10 11 13 11 13 12 11 12 14 17 24 33 29 28 21 22 19 20 17 14 13 10 11 10 10 9 9 12 12
21 21 21 20 16 12 11 10 7 5 4 6 7 9 12 12 14 14 16 15 18 22 27 34 41 41 35 28 26 28 25 21 16 14 15 8 10 15 14 15 14 15 13
27 23 21 23 18 15 14 12 9 8 9 8 8 9 11 12 16 17 17 18 23 30 34 36 38 36 26 23 22 23 26 25 22 19 9 14 12 13 12 14 17 19 16
27 27 26 25 22 19 16 15 12 8 7 7 6 7 10 12 15 20 22 25 29 31 31 30 29 28 22 20 21 22 24 26 24 19 16 15 11 15 13 13 17 21 22
23 25 34 30 23 18 12 9 5 4 5 8 10 9 11 13 14 15 17 19 22 24 25 24 25 23 21 21 22 24 28 33 32 18 22 18 18 21 16 14 20 21 24
27 33 30 25 19 14 10 5 2 4 6 7 9 11 15 16 15 15 14 15 17 17 15 16 17 20 24 25 21 21 26 26 18 24 27 26 19 25 24 21 25 21 24
31 33 27 22 18 12 7 3 3 4 6 8 11 14 15 14 14 14 15 14 18 18 21 23 24 24 26 25 22 19 17 19 12 17 23 18 31 32 34 33 31 24 24
26 23 20 18 14 10 7 5 3 5 7 9 9 10 11 14 15 16 17 18 19 21 23 24 26 28 28 29 27 23 19 16 8 15 16 20 30 32 31 34 36 38 25
20 16 16 14 13 8 8 7 4 1 4 4 4 9 13 16 16 16 18 18 20 26 30 32 33 33 31 30 27 23 19 14 9 10 12 22 28 33 33 34 39 39 43
18 18 13 9 7 5 4 5 7 7 5 4 6 10 14 13 19 20 20 22 25 29 33 36 36 35 35 32 28 24 19 12 11 12 13 21 25 28 30 29 31 31 49
21 16 11 8 3 2 4 6 6 8 5 7 9 13 14 17 19 22 24 25 30 33 36 36 37 38 31 19 19 22 13 18 14 15 18 27 28 30 30 29 30 31 36
19 18 12 6 0 1 3 4 5 7 9 11 15 16 18 21 20 21 20 22 29 36 26 32 33 24 33 31 24 26 25 24 17 17 25 26 24 28 35 34 31 30 27
22 20 14 9 1 2 3 4 5 7 10 12 15 22 20 19 22 23 24 27 29 28 33 28 26 37 38 35 29 26 24 20 15 14 22 24 24 23 25 32 33 30 30
25 22 18 13 7 6 2 2 5 8 10 13 16 18 20 19 21 23 26 28 29 27 28 28 28 29 33 29 27 26 22 22 22 14 14 27 26 24 24 26 31 36 35
23 22 20 18 11 6 4 5 7 12 12 14 14 17 22 22 21 23 26 25 25 26 26 26 27 30 27 28 25 27 25 20 17 19 14 19 23 23 24 27 28 32 37
18 20 22 22 13 7 7 6 7 7 13 10 14 23 22 24 25 29 26 27 27 29 34 30 31 32 32 28 31 30 29 27 19 24 19 14 17 19 20 22 27 30 33
22 22 24 25 15 10 9 4 4 8 15 12 18 23 25 26 27 32 30 32 33 39 36 36 35 34 33 31 30 30 29 27 26 28 21 17 15 13 19 21 23 26 28
23 25 28 24 13 15 10 3 6 10 11 12 20 22 27 30 34 37 42 44 42 42 46 42 42 41 42 39 38 37 35 34 32 28 27 25 23 20 15 23 22 25 29
19 22 25 20 14 20 16 10 11 12 14 22 28 32 36 39 40 43 47 53 51 44 47 47 50 51 51 53 51 49 45 42 39 38 34 32 31 24 18 15 17 16 25
16 22 15 17 23 24 17 12 13 17 18 16 20 36 42 47 56 61 63 57 57 47 51 62 57 56 58 55 54 58 58 52 50 49 46 44 41 35 30 23 20 16 17
14 17 21 22 24 25 17 23 22 19 16 25 27 44 53 62 61 56 54 54 51 50 50 52 55 57 59 56 62 60 66 65 61 52 51 51 48 43 35 29 24 31 32
15 15 14 16 16 13 8 12 15 17 22 23 37 45 56 59 59 58 58 60 63 58 50 50 52 54 64 62 59 64 51 67 62 60 49 46 46 43 39 35 26 26 25
8 9 7 1 5 11 22 28 40 28 31 45 42 38 57 60 64 67 69 68 68 64 53 49 48 52 54 67 63 65 77 80 74 65 49 47 49 47 41 35 31 24 21
11 11 12 14 19 30 35 46 38 35 31 30 37 44 47 47 57 65 70 70 67 63 52 59 54 42 43 53 59 59 61 65 68 66 72 45 46 45 41 34 30 29 27
14 13 19 20 25 35 43 55 51 42 42 44 46 51 49 54 52 50 61 59 55 49 36 32 30 26 21 15 18 20 23 25 29 44 58 69 62 43 40 31 30 30 32
Wind_Direction_850mb
155 166 175 179 174 167 152 127 113 115 140 154 154 166 206 219 236 240 231 230 255 267 268 272 334 318 302 298 293 271 276 271 274 270 279 280 293 284 273 158 79 132 136
146 140 164 172 167 156 147 142 129 130 172 151 160 177 226 241 258 257 258 272 272 267 265 283 295 308 296 280 267 252 247 254 257 257 278 281 268 260 263 247 176 204 159
139 140 140 143 150 155 140 142 154 145 164 151 169 194 224 240 247 259 263 276 287 290 286 291 300 301 296 282 254 247 238 236 240 250 255 238 262 260 255 255 240 222 194
139 141 137 132 127 127 133 151 154 164 181 181 185 208 234 251 257 259 265 274 284 289 292 297 300 302 301 280 259 241 236 234 235 233 246 253 241 263 254 255 247 239 218
136 133 133 128 132 139 145 149 151 175 213 247 271 264 267 275 294 299 299 290 286 289 294 295 290 289 286 287 280 265 246 238 236 238 240 238 251 254 247 259 249 248 241
130 128 126 128 128 122 117 109 129 211 254 272 272 296 309 314 310 303 299 303 307 310 310 299 298 298 294 288 275 268 266 258 248 245 251 245 239 242 242 248 261 246 248
130 123 119 115 112 108 105 105 136 226 263 277 290 307 317 324 326 316 321 326 327 325 320 317 312 311 313 314 310 279 262 266 257 242 244 245 237 245 241 238 251 254 255
135 126 121 117 105 85 64 2 306 270 263 286 303 314 319 316 316 320 330 339 345 345 343 343 334 329 326 323 320 312 296 265 264 243 233 251 256 256 257 250 240 240 259
142 133 124 108 87 68 35 351 319 274 270 271 286 303 311 312 319 323 331 332 340 342 339 333 330 331 330 327 320 315 307 289 255 260 260 252 258 257 255 256 259 256 253
150 155 130 101 82 45 21 38 71 213 226 248 286 314 316 315 321 324 322 327 328 330 331 330 329 327 327 325 323 318 318 324 290 281 269 252 260 255 256 262 268 245 258
165 151 129 115 81 40 30 51 54 45 46 1 330 314 317 317 317 320 313 322 325 325 324 324 323 323 323 321 320 319 323 302 302 278 272 270 267 265 265 260 262 246 232
179 167 154 135 101 354 356 4 4 7 3 354 340 339 335 319 310 307 302 307 313 317 317 318 317 317 321 315 311 315 309 294 311 292 280 280 274 273 272 267 262 264 251
182 187 193 185 180 229 286 338 320 330 330 323 326 323 316 318 319 322 317 321 319 317 322 318 316 316 311 310 299 295 292 298 290 292 280 293 285 273 270 273 269 260 257
193 201 206 216 267 269 276 320 314 319 313 322 317 320 319 319 312 314 313 315 318 315 314 315 312 310 312 313 310 303 296 290 284 284 279 294 290 282 275 270 267 265 261
198 212 213 226 221 239 239 284 352 346 329 328 325 315 317 313 310 313 311 314 312 312 312 311 309 308 310 311 309 305 299 294 291 277 275 295 295 293 289 280 273 268 261
214 220 219 222 224 243 191 64 34 15 357 348 338 331 342 334 321 320 316 314 311 308 304 301 301 305 299 300 298 297 293 283 277 279 268 285 289 288 284 283 281 274 267
221 220 210 207 214 227 165 97 58 19 21 351 353 2 358 351 334 330 317 316 313 310 310 304 300 301 297 290 293 287 288 286 272 284 277 246 280 287 288 275 271 271 271
232 224 205 202 211 211 171 94 11 354 358 345 346 341 338 328 323 321 310 307 309 311 304 299 296 290 287 284 279 273 270 265 267 274 262 256 237 254 297 285 275 273 268
243 223 200 198 202 204 200 280 330 325 339 322 320 318 314 314 312 306 303 300 297 294 294 288 284 282 280 278 276 272 266 265 264 262 252 248 244 244 253 286 298 280 271
227 200 187 186 207 215 224 266 273 289 308 312 311 311 316 320 319 313 307 304 301 291 288 284 279 277 272 273 272 268 263 260 258 253 254 250 249 238 251 247 281 283 292
209 180 178 188 220 222 242 274 281 291 301 313 314 310 319 319 318 312 307 303 300 293 289 292 284 276 274 265 269 265 263 258 253 249 251 246 244 240 244 246 261 258 280
143 162 194 208 227 238 274 295 304 317 326 316 318 317 316 313 312 313 310 307 301 296 291 286 284 281 273 265 259 263 265 263 255 251 249 244 237 234 238 241 238 272 276
152 177 207 236 255 278 337 6 352 337 334 322 322 318 313 312 314 317 315 312 309 303 294 288 283 278 278 271 258 250 265 253 258 253 238 236 234 232 234 235 248 258 269
184 206 221 179 55 10 359 351 344 345 333 326 323 319 318 316 317 317 314 310 306 301 295 291 288 280 277 274 269 261 255 259 267 268 240 233 225 225 228 233 245 253 250
104 108 76 39 10 354 347 343 342 335 333 329 320 316 317 316 315 314 312 310 306 302 299 300 295 287 276 270 269 268 264 263 256 254 255 236 227 224 227 236 240 248 255
80 46 10 1 345 340 344 339 336 337 328 322 319 321 320 319 317 315 311 307 301 301 305 306 303 307 307 291 275 266 266 264 269 256 255 251 248 229 227 232 242 253 253